Location: Pulvis Stellarum Observatory
(41.6962°N, 71.4263°W)
Time: 21:37:52
(UTC-04:00)

Daily predictions for brighter satellites

Satellite Brightness Start Highest point End
(mag) Time Altitude Azimuth Time Altitude Azimuth Time Altitude Azimuth
Cosmos 1470 3.3 20:50:53 10° NNW 20:54:44 60° W 20:58:35 10° S
NOSS 2-3 (C) 4.3 20:51:44 10° SW 20:56:16 70° NW 21:01:37 10° NNE
USA 215 3.5 20:54:12 10° SE 21:00:44 70° SW 21:07:18 10° NW
Cosmos 1048 Rocket 4.2 20:56:38 10° S 21:01:46 54° ESE 21:07:01 10° NNE
Cosmos 1825 Rocket 3.7 21:01:12 10° S 21:05:35 58° E 21:09:58 10° NNE
Cosmos 921 Rocket 4.5 21:04:55 10° N 21:08:38 25° ENE 21:12:22 10° ESE
Meteor 2-5 Rocket 3.9 21:06:16 10° S 21:12:11 72° E 21:18:05 10° NNE
Cosmos 2285 Rocket 4.1 21:07:16 10° S 21:13:25 55° ESE 21:19:33 10° NNE
Cosmos 2263 Rocket 3.7 21:15:28 10° SW 21:20:48 41° WNW 21:26:09 10° N
Cosmos 2266 Rocket 4.3 21:16:10 10° N 21:22:33 74° W 21:28:50 10° S
Cosmos 1452 Rocket 4.1 21:17:57 10° NNW 21:23:09 58° WSW 21:28:18 10° S
Spot 2 Rocket 4.1 21:18:56 10° S 21:23:52 55° W 21:28:51 10° NNW
Cosmos 1420 Rocket 4.4 21:19:28 10° NNW 21:24:37 64° WSW 21:29:43 10° S
Cosmos 1908 4.4 21:21:38 10° NNE 21:25:02 28° ENE 21:27:39 14° SE
Cosmos 1437 3.1 21:22:45 10° N 21:25:49 45° ENE 21:28:12 15° SSE
GENESIS II 4.2 21:28:25 10° SW 21:32:18 85° WNW 21:36:15 10° NNE
Nadezhda 2 Rocket 4.5 21:30:57 10° N 21:37:15 80° E 21:43:21 10° S
In-Cosmos 22 4.2 21:32:13 10° S 21:37:44 90° SE 21:43:27 10° N
Terra 3.5 21:35:58 12° ESE 21:39:00 20° ENE 21:42:27 10° NNE
Cosmos 1340 4.0 21:38:10 10° NNE 21:41:23 25° ENE 21:43:16 17° ESE
Cosmos 1110 Rocket 4.3 21:37:17 10° N 21:42:21 53° ENE 21:46:06 18° SE
SPOT 1/Viking Rocket 4.1 21:41:42 16° SE 21:45:24 43° ENE 21:50:16 10° N
H-2A R/B 2.1 21:40:36 12° SSE 21:45:35 87° WSW 21:51:02 10° NNW
MetOp-B 4.2 21:44:20 12° S 21:49:22 81° WSW 21:54:45 10° NNW
USA 238 DEB 4.0 21:44:06 10° NNW 21:51:12 64° NE 21:56:47 18° SE
USA 238 4.0 21:44:11 10° NNW 21:51:18 64° NE 21:56:52 18° SE
Cosmos-2242 3.0 21:47:11 10° N 21:51:36 88° W 21:55:07 16° S
ATLAS 3B R/B 3.2 21:45:44 10° NNW 21:52:10 49° NE 21:57:12 16° ESE
Cosmos 1315 Rocket 3.9 21:49:08 10° SSW 21:53:02 45° WNW 21:57:00 10° N
Cosmos 1674 2.6 21:50:51 15° S 21:53:55 70° E 21:57:45 10° NNE
Cosmos 1553 Rocket 4.0 21:49:02 12° S 21:54:29 59° E 22:00:26 10° NNE
Cosmos 1269 Rocket 4.3 21:50:03 10° SSW 21:55:20 73° WNW 22:00:40 10° NNE
Cosmos 1300 4.3 21:52:34 10° NNE 21:55:29 20° ENE 21:56:49 17° ESE
Cosmos 1331 Rocket 4.1 21:51:39 10° NNW 21:56:49 63° ENE 22:00:13 21° SE
Cosmos 2084 3.2 21:53:10 10° NW 21:57:01 76° SW 21:59:10 25° SSE
Iridium 81 3.6 21:56:27 39° SSE 21:57:10 63° E 21:59:54 10° N
Cosmos 1842 Rocket 4.1 21:57:32 10° N 22:01:40 42° ENE 22:03:46 24° SE
Cosmos 494 Rocket 3.9 21:58:04 10° SSW 22:03:17 77° ESE 22:08:34 10° NNE
NOSS 3-2 (A) 4.5 21:56:45 10° NNW 22:04:06 54° NE 22:10:18 18° ESE
DMSP B5D2-2 4.0 22:00:23 10° NNE 22:05:39 77° ESE 22:10:30 12° S
Cosmos 2278 Rocket 2.8 22:08:20 22° SSE 22:11:16 37° ESE 22:16:26 10° NE
Meteor 2-10 4.2 22:06:08 10° N 22:11:33 70° E 22:14:58 24° SSE
Helios 1A 2.9 22:09:19 27° SSE 22:11:33 75° ENE 22:15:46 10° N
SPOT 5 3.0 22:08:36 23° SSE 22:11:51 80° ENE 22:17:08 10° N
Cosmos 1726 2.0 22:10:02 10° N 22:13:48 80° E 22:15:28 31° SSE
ATLAS 2AS CENTAUR R/B 3.3 22:10:32 10° SW 22:18:21 74° NW 22:26:31 10° NNE
ARGOS 4.4 22:14:18 10° SSW 22:19:15 36° W 22:24:15 10° NNW
OAO 3 Rocket 3.8 22:15:45 10° WSW 22:20:18 37° S 22:21:44 30° SSE
Lacrosse 5 3.2 22:15:41 10° WSW 22:20:30 43° NW 22:25:21 10° NE
Helios 1B rocket 2.5 22:17:29 10° NNE 22:21:32 59° E 22:23:14 32° SSE
SL-8 R/B 3.8 22:17:17 10° WSW 22:22:08 81° NNW 22:26:59 10° ENE
COSMOS 2406 3.2 22:17:22 10° NNW 22:23:10 90° WSW 22:26:24 27° SSE
Cosmos 1302 Rocket 4.2 22:18:52 10° NNW 22:24:08 61° ENE 22:26:42 29° SE
SL-14 R/B 3.4 22:26:55 39° SSE 22:28:02 55° E 22:31:53 10° NNE
NOSS 3-2 (C) 4.4 22:21:13 10° NNW 22:28:36 57° NE 22:34:12 21° ESE
Cosmos 2251 Rocket 3.5 22:25:25 21° S 22:28:56 66° ESE 22:34:13 10° NNE
Cosmos 1346 Rocket 4.5 22:26:27 10° NNW 22:29:56 29° W 22:32:47 14° SSW
ERS-1 Rocket 3.8 22:26:46 16° SSW 22:30:26 44° W 22:35:15 10° NNW
CZ-2C R/B 3.6 22:28:42 28° SE 22:31:42 57° ENE 22:37:22 10° N
Cosmos 1844 4.2 22:27:28 10° SW 22:33:06 63° WNW 22:38:49 10° NNE
Cosmos 1844 Rocket 3.7 22:27:52 10° SW 22:33:20 48° WNW 22:38:49 10° NNE
Cosmos 2221 2.7 22:36:45 10° N 22:41:03 59° E 22:42:13 42° SE
ATLAS 3B CENTAUR R/B 4.1 22:33:40 10° SW 22:45:28 27° S 22:46:48 26° SSE
Cosmos 1745 Rocket 4.2 22:42:59 10° NNW 22:49:16 68° W 22:53:00 25° S
Meteor 1-29 2.9 22:46:10 10° N 22:49:34 81° WNW 22:50:09 58° SSW
ATLAS 5 CENTAUR R/B 1.9 22:53:54 43° SE 22:54:05 43° ESE 22:58:38 10° NE
NOSS 2-2 (E) 3.5 22:54:49 50° ESE 22:54:49 50° ESE 22:58:52 10° NE
NOSS 3-4 (A) 3.3 22:50:38 17° SSW 22:55:31 73° ESE 23:01:54 10° NE
NOSS 3-4 (C) 3.3 22:50:51 17° SSW 22:55:36 72° ESE 23:01:59 10° NE
Cosmos 2082 Rocket 3.0 22:53:43 10° N 22:59:06 41° ENE 23:01:32 27° ESE
CENTAUR R/B 3.7 22:53:38 10° NNW 23:01:16 49° NE 23:07:06 20° ESE
ADEOS Rocket 4.4 22:58:21 10° NE 23:02:57 22° E 23:03:55 21° ESE
Cosmos 1833 Rocket 3.2 22:58:49 10° NNW 23:04:17 50° ENE 23:06:24 33° ESE
Nimbus 7 Rocket 4.4 23:00:28 10° NNE 23:06:30 87° WNW 23:09:51 29° SSW
RESURS DK-1 3.4 23:10:23 31° E 23:10:23 31° E 23:13:20 10° NE
COBE Rocket 4.2 23:04:49 10° NNE 23:09:48 53° E 23:10:50 45° SE
Cosmos 1461 3.3 23:08:00 25° SW 23:10:44 75° WNW 23:15:31 10° NNE
CARTOSAT-1 4.5 23:10:01 31° SW 23:11:20 40° W 23:15:26 10° NNW
Cosmos 1626 2.1 23:14:08 71° SW 23:14:24 76° W 23:18:09 10° N
CZ-2C R/B 2.5 23:09:41 10° NNE 23:15:09 86° ESE 23:17:05 41° S
Terra 2.5 23:14:52 33° SW 23:16:25 45° W 23:20:59 10° NNW
APEX 4.3 23:17:54 10° NW 23:20:32 30° WSW 23:20:32 30° WSW
Cosmos 1709 Rocket 4.0 23:16:36 10° N 23:22:49 74° W 23:25:15 39° S
NOSS 2-2 (D) 3.1 23:24:53 81° SSW 23:25:04 87° ESE 23:29:24 10° NE
ALOS 2 4.0 23:24:47 24° E 23:25:31 26° ENE 23:29:09 10° NNE
Cosmos 1455 2.5 23:26:57 10° N 23:30:25 56° ENE 23:30:25 56° ENE
Cosmos 1300 4.3 23:27:58 10° NW 23:31:08 25° W 23:31:48 24° WSW
Cosmos 1076 Rocket 4.1 23:32:55 42° WSW 23:33:52 50° WNW 23:38:00 10° N
Cosmos 1766 Rocket 3.4 23:34:46 73° SSE 23:35:06 80° E 23:39:36 10° N
Cosmos 1328 4.4 23:34:47 44° WSW 23:35:19 48° W 23:39:10 10° N
Cosmos 1408 Rocket 3.5 23:35:24 64° ESE 23:35:33 65° E 23:40:00 10° NNE
Cosmos 2074 Rocket 4.2 23:29:50 10° N 23:36:02 59° E 23:37:54 43° SE
Cosmos 1151 Rocket 4.1 23:33:34 10° NNE 23:37:23 31° ENE 23:37:31 31° E
SL-27 R/B 2.9 23:34:52 10° NNW 23:38:04 61° NNE 23:38:04 61° NNE
Meteor 1-11 4.2 23:37:29 48° S 23:39:14 89° W 23:45:04 10° N
Spot 4 3.9 23:38:24 58° SSW 23:39:15 73° WSW 23:44:09 10° NNW
SL-19 R/B 4.2 23:35:15 10° NNE 23:40:38 56° E 23:41:22 51° SE
ATLAS 3B R/B 3.5 23:36:48 10° NW 23:42:37 34° WSW 23:44:26 29° SW
Cosmos 1515 Rocket 4.4 23:40:29 10° N 23:44:37 38° ENE 23:44:49 37° E
Mayak -0.6 23:46:07 10° NNE 23:49:39 45° ENE 23:49:39 45° ENE
H-2A R/B 3.4 23:50:04 27° ENE 23:50:22 27° ENE 23:53:51 10° N
NOSS 2-2 (C) 4.1 23:50:15 40° W 23:51:14 51° NW 23:55:30 10° NNE
